Onweer van: 25-07-2021 11:00 tot: 20:00 waarschuwing voor: Onweer niveau: Geel info button


waarschuwing voor Onweer Meer informatie blitzortung!


Regen radar Meer informatie rain snow radar


Bezoek onze andere website:

Template documentation
and downloads

And another site



15 daagse weersverwachting Hørsholm (DK)

  • Overzicht
  • Per uur
  • 15 dagen
  • Extra
  • Vergelijk
  • Kaarten
  • Dagkaart
  • Meer »
  • Info
  • Statistieken
  • Directe link
    Temp 6h Neerslag Wind  
 05:05     21:29    Daglengte: 16:24 Vandaag
08:00
20°
 
7
14:00
24°
 
7
20:00
23°
 
6
 05:07     21:27    Daglengte: 16:20 Morgen
02:00
20°
 
6
08:00
21°
 
5
14:00
26°
0.7 mm
5
20:00
24°
 
2
 05:09     21:26    Daglengte: 16:17 Dinsdag 27 Jul
02:00
20°
4.0 mm
3
08:00
20°
7.2 mm
3
14:00
23°
3.2 mm
4
20:00
22°
 
3
Locatie info
Region: Hovedstaden
Latitude: 55.8799°N
Longitude: 12.5067°E
29 masl
Postcode: 2970
Temp/Neerslag /Baro Onweer/Dauwpunt
    Temp Baro 1h Neerslag Dauwpunt Wind UV Bewolking  
 05:05     21:29    Daglengte: 16:24 Vandaag
04:00
18°
1013.6 hPa   15.4°
6
Windvlaag: 3.6 m/s
57%
05:00
19°
1013.4 hPa   15.5°
6
Windvlaag: 3.9 m/s
70%
06:00
19°
1013.1 hPa   15.6°
7
Windvlaag: 5.1 m/s
75%
07:00
19°
1013.1 hPa   15.6°
7
Windvlaag: 5.4 m/s
72%
08:00
20°
1013.1 hPa   15.5°
7
Windvlaag: 5.1 m/s
75%
09:00
21°
1013.2 hPa   15.3°
8
Windvlaag: 5.3 m/s
75%
10:00
22°
1013.4 hPa
14%
15.1°
7
Windvlaag: 5.4 m/s
73%
11:00
23°
1013.3 hPa   15.2°
8
Windvlaag: 6 m/s
72%
12:00
23°
1013.3 hPa   15.1°
8
Windvlaag: 5.9 m/s
57%
13:00
24°
1013.4 hPa   14.2°
7
Windvlaag: 5.7 m/s
78%
14:00
24°
1013.1 hPa
14%
12.8°
7
Windvlaag: 5.3 m/s
41%
15:00
25°
1013.0 hPa
15%
13.0°
7
Windvlaag: 4.4 m/s
74%
16:00
24°
1013.0 hPa
17%
13.2°
6
Windvlaag: 4 m/s
64%
17:00
25°
1012.6 hPa
15%
13.8°
6
Windvlaag: 4.1 m/s
57%
18:00
24°
1012.4 hPa   13.9°
7
Windvlaag: 4.3 m/s
74%
19:00
24°
1012.5 hPa   13.8°
6
Windvlaag: 4.9 m/s
56%
20:00
23°
1012.5 hPa   14.1°
6
Windvlaag: 5.1 m/s
64%
21:00
22°
1012.7 hPa   14.9°
5
Windvlaag: 3.8 m/s
35%
22:00
22°
1012.7 hPa   15.4°
5
Windvlaag: 3.9 m/s
41%
23:00
21°
1012.8 hPa   15.9°
6
Windvlaag: 3.6 m/s
38%
 05:07     21:27    Daglengte: 16:20 Morgen
00:00
21°
1012.7 hPa   16.3°
6
Windvlaag: 3.1 m/s
28%
01:00
20°
1012.5 hPa   16.5°
6
Windvlaag: 3.1 m/s
27%
02:00
20°
1012.2 hPa
13%
17.0°
6
Windvlaag: 2.9 m/s
55%
03:00
20°
1011.9 hPa
14%
17.5°
6
Windvlaag: 2.4 m/s
65%
04:00
20°
1011.6 hPa
14%
17.5°
6
Windvlaag: 2.6 m/s
76%
05:00
20°
1011.7 hPa
14%
17.9°
5
Windvlaag: 2.4 m/s
71%
06:00
20°
1011.5 hPa
60%
18.0°
5
Windvlaag: 2.3 m/s
80%
07:00
20°
1011.6 hPa
81%
18.0°
5
Windvlaag: 2.5 m/s
82%
08:00
21°
1011.5 hPa
82%
17.8°
5
Windvlaag: 2.8 m/s
85%
09:00
22°
1011.7 hPa
82%
17.2°
5
Windvlaag: 3.6 m/s
86%
10:00
23°
1011.7 hPa
82%
17.0°
5
Windvlaag: 3.2 m/s
86%
11:00
24°
1011.8 hPa
81%
16.4°
5
Windvlaag: 3.3 m/s
79%
12:00
25°
1011.5 hPa
82%
15.8°
4
Windvlaag: 3.3 m/s
81%
13:00
26°
1011.2 hPa 0.7 mm
82%
15.2°
5
Windvlaag: 4 m/s
82%
14:00
26°
1010.8 hPa
82%
14.2°
5
Windvlaag: 4.1 m/s
61%
15:00
27°
1010.4 hPa
82%
13.5°
6
Windvlaag: 4.1 m/s
69%
16:00
27°
1010.2 hPa
82%
13.6°
5
Windvlaag: 4 m/s
78%
17:00
26°
1009.9 hPa
82%
15.3°
4
Windvlaag: 4 m/s
72%
18:00
25°
1009.8 hPa
82%
17.0°
3
Windvlaag: 4.3 m/s
78%
19:00
25°
1009.7 hPa
81%
17.3°
3
Windvlaag: 4.1 m/s
80%
20:00
24°
1009.6 hPa
79%
17.9°
2
Windvlaag: 3.7 m/s
80%
21:00
23°
1009.7 hPa
79%
18.8°
3
Windvlaag: 2 m/s
80%
22:00
22°
1009.8 hPa
81%
18.8°
4
Windvlaag: 2.7 m/s
80%
23:00
21°
1010.0 hPa 1.0 mm
56%
16.3°
2
Windvlaag: 1.8 m/s
91%
 05:09     21:26    Daglengte: 16:17 Dinsdag 27 Jul
00:00
21°
1009.8 hPa 0.8 mm
100%
17.0°
2
Windvlaag: 0.4 m/s
87%
01:00
20°
1009.4 hPa 1.3 mm
100%
17.3°
3
Windvlaag: 0.8 m/s
85%
02:00
20°
1009.3 hPa 0.8 mm
95%
16.1°
3
Windvlaag: 1.6 m/s
94%
03:00
20°
1009.1 hPa 1.0 mm
99%
17.3°
3
Windvlaag: 5.4 m/s
95%
04:00
19°
1008.6 hPa 2.7 mm
92%
18.2°
2
Windvlaag: 2.3 m/s
78%
05:00
19°
1008.7 hPa 1.1 mm
47%
18.2°
2
Windvlaag: 4.5 m/s
74%
06:00
19°
1008.4 hPa 1.2 mm
46%
18.4°
2
Windvlaag: 3.8 m/s
97%
07:00
19°
1008.4 hPa
84%
18.2°
2
Windvlaag: 4 m/s
86%
08:00
20°
1008.3 hPa 1.2 mm
84%
17.0°
3
Windvlaag: 3.5 m/s
79%
09:00
21°
1008.3 hPa
87%
15.7°
3
Windvlaag: 7.1 m/s
15%
10:00
21°
1008.6 hPa 1.1 mm
100%
14.7°
4
Windvlaag: 7.1 m/s
31%
11:00
21°
1008.5 hPa 1.1 mm
100%
13.2°
4
Windvlaag: 7.5 m/s
59%
12:00
22°
1008.6 hPa
100%
13.0°
4
Windvlaag: 6.9 m/s
37%
13:00
22°
1008.7 hPa 1.0 mm
100%
12.0°
4
Windvlaag: 7.5 m/s
60%
14:00
23°
1008.7 hPa
95%
12.0°
4
Windvlaag: 8.4 m/s
51%
15:00
23°
1008.6 hPa
47%
12.1°
5
Windvlaag: 7.5 m/s
46%
16:00
22°
1009.0 hPa
100%
11.5°
4
Windvlaag: 7.6 m/s
20%
17:00
22°
1009.0 hPa
92%
11.6°
4
Windvlaag: 7.5 m/s
20%
18:00
23°
1008.9 hPa
42%
12.3°
4
Windvlaag: 6.3 m/s
20%
19:00
22°
1008.9 hPa
37%
10.8°
4
Windvlaag: 6.3 m/s
13%
20:00
22°
1009.1 hPa
83%
10.9°
3
Windvlaag: 6 m/s
14%
21:00
20°
1009.8 hPa
24%
14.0°
2
Windvlaag: 3.5 m/s
12%
22:00
19°
1010.3 hPa
25%
14.3°
2
Windvlaag: 0.9 m/s
11%
23:00
18°
1010.5 hPa
22%
14.9°
2
Windvlaag: 4.3 m/s
32%
 05:10     21:24    Daglengte: 16:14 Woensdag 28 Jul
00:00
18°
1010.6 hPa
21%
15.4°
2
Windvlaag: 5.9 m/s
46%
01:00
18°
1010.3 hPa
21%
15.4°
2
Windvlaag: 7.1 m/s
18%
02:00
18°
1010.0 hPa
21%
16.2°
2
Windvlaag: 6.8 m/s
68%
Temp/Neerslag /Baro Onweer/Dauwpunt
    Temp Baro Neerslag Dauwpunt Wind Bewolking  
 05:05     21:29    Daglengte: 16:24 Vandaag
05:00
19°
1013.4 hPa   15.5°
6
70%
08:00
20°
1013.1 hPa   15.5°
7
75%
11:00
23°
1013.3 hPa   15.2°
8
72%
14:00
24°
1013.1 hPa   12.8°
7
41%
17:00
25°
1012.6 hPa   13.8°
6
57%
20:00
23°
1012.5 hPa   14.1°
6
64%
23:00
21°
1012.8 hPa   15.9°
6
38%
 05:07     21:27    Daglengte: 16:20 Morgen
02:00
20°
1012.2 hPa   17.0°
6
55%
05:00
20°
1011.7 hPa   17.9°
5
71%
08:00
21°
1011.5 hPa   17.8°
5
85%
11:00
24°
1011.8 hPa   16.4°
5
79%
14:00
26°
1010.8 hPa 0.7 mm 14.2°
5
61%
17:00
26°
1009.9 hPa   15.3°
4
72%
20:00
24°
1009.6 hPa   17.9°
2
80%
23:00
21°
1010.0 hPa 1.0 mm 16.3°
2
91%
 05:09     21:26    Daglengte: 16:17 Dinsdag 27 Jul
02:00
20°
1009.3 hPa 3.0 mm 16.1°
3
94%
05:00
19°
1008.7 hPa 4.8 mm 18.2°
2
74%
08:00
20°
1008.3 hPa 2.4 mm 17.0°
3
79%
11:00
21°
1008.5 hPa 2.2 mm 13.2°
4
59%
14:00
23°
1008.7 hPa 1.0 mm 12.0°
4
51%
17:00
22°
1009.0 hPa   11.6°
4
20%
20:00
22°
1009.1 hPa   10.9°
3
14%
23:00
18°
1010.5 hPa   14.9°
2
32%
 05:10     21:24    Daglengte: 16:14 Woensdag 28 Jul
02:00
18°
1010.0 hPa   16.2°
2
68%
05:00
17°
1009.0 hPa 8.1 mm 14.7°
2
1%
08:00
19°
1008.3 hPa 8.5 mm 15.3°
2
1%
11:00
19°
1007.7 hPa 10.2 mm 16.0°
3
1%
14:00
24°
1007.4 hPa 11.3 mm 13.3°
7
1%
17:00
23°
1007.9 hPa 11.5 mm 14.1°
6
1%
20:00
20°
1008.2 hPa 12.0 mm 15.3°
6
1%
23:00
17°
1009.2 hPa 12.1 mm 14.5°
5
0%
 05:12     21:22    Daglengte: 16:10 Donderdag 29 Jul
02:00
16°
1009.5 hPa 12.1 mm 13.1°
5
0%
05:00
16°
1009.6 hPa 12.2 mm 12.3°
5
1%
08:00
17°
1009.8 hPa 12.2 mm 12.8°
5
1%
11:00
21°
1009.1 hPa 12.2 mm 10.7°
5
0%
14:00
23°
1008.0 hPa 12.2 mm 9.6°
7
0%
17:00
23°
1007.3 hPa 12.2 mm 11.0°
6
0%
20:00
21°
1006.5 hPa 12.3 mm 11.7°
5
1%
23:00
18°
1005.2 hPa 12.3 mm 12.8°
5
1%
 05:14     21:20    Daglengte: 16:06 Vrijdag 30 Jul
02:00
18°
1003.9 hPa 12.5 mm 13.8°
6
1%
05:00
16°
1004.0 hPa 13.2 mm 12.1°
7
1%
08:00
17°
1004.3 hPa 13.2 mm 11.5°
7
1%
11:00
20°
1004.5 hPa 13.2 mm 8.9°
9
0%
14:00
22°
1004.3 hPa 13.2 mm 8.6°
8
0%
17:00
20°
1004.0 hPa 13.3 mm 9.8°
8
1%
20:00
17°
1003.7 hPa 13.9 mm 12.6°
8
1%
23:00
15°
1003.7 hPa 14.2 mm 12.4°
8
0%
 05:16     21:18    Daglengte: 16:02 Zaterdag 31 Jul
02:00
15°
1004.1 hPa 14.6 mm 11.6°
7
1%
05:00
15°
1003.8 hPa 14.7 mm 12.7°
6
0%
08:00
17°
1003.4 hPa 15.0 mm 13.6°
7
1%
11:00
19°
1003.1 hPa 15.7 mm 12.7°
6
1%
14:00
20°
1002.4 hPa 17.4 mm 14.3°
6
1%
17:00
18°
1002.2 hPa 19.1 mm 14.2°
7
1%
20:00
15°
1002.5 hPa 20.3 mm 13.4°
5
1%
23:00
15°
1003.0 hPa 21.2 mm 12.4°
6
1%
 05:18     21:16    Daglengte: 15:58 Zondag 01 Aug
02:00
14°
1003.5 hPa 42.7 mm 12.0°
4
1%
08:00
16°
1005.5 hPa 43.7 mm 10.1°
5
1%
14:00
19°
1007.6 hPa 44.0 mm 9.3°
7
0%
20:00
17°
1008.6 hPa 44.4 mm 9.3°
5
1%
 05:20     21:14    Daglengte: 15:54 Maandag 02 Aug
02:00
13°
1009.2 hPa 44.6 mm 9.2°
3
1%
08:00
14°
1009.3 hPa 47.2 mm 10.4°
3
1%
14:00
18°
1010.4 hPa 53.2 mm 10.0°
4
1%
20:00
16°
1010.7 hPa 57.6 mm 9.6°
4
1%
 05:21     21:12    Daglengte: 15:51 Dinsdag 03 Aug
02:00
13°
1011.7 hPa 65.9 mm 11.9°
4
1%
14:00
19°
1014.8 hPa 108.6 mm 10.1°
5
1%
20:00
17°
1014.6 hPa 73.4 mm 11.1°
4
1%
 05:23     21:10    Daglengte: 15:47 Woensdag 04 Aug
02:00
15°
1006.5 hPa 0.7 mm 11.9°
3
59%
08:00
16°
1006.6 hPa 0.6 mm 12.0°
3
60%
14:00
19°
1007.3 hPa 1.7 mm 11.6°
4
59%
20:00
18°
1007.9 hPa 1.7 mm 12.1°
3
65%
 05:25     21:08    Daglengte: 15:43 Donderdag 05 Aug
02:00
15°
1008.7 hPa 0.6 mm 11.9°
3
49%
08:00
16°
1009.1 hPa 0.7 mm 12.0°
3
58%
14:00
19°
1009.7 hPa 1.2 mm 11.6°
3
60%
20:00
18°
1009.9 hPa 0.5 mm 12.3°
2
55%
 05:27     21:06    Daglengte: 15:39 Vrijdag 06 Aug
02:00
16°
1010.6 hPa 0.6 mm 12.4°
3
61%
08:00
16°
1010.7 hPa 0.4 mm 12.5°
3
64%
14:00
20°
1011.0 hPa 0.9 mm 12.2°
3
70%
20:00
19°
1010.7 hPa 1.3 mm 13.0°
2
69%
 05:29     21:03    Daglengte: 15:34 Zaterdag 07 Aug
02:00
16°
1010.8 hPa 1.1 mm 12.9°
2
79%
08:00
17°
1010.3 hPa 0.5 mm 12.9°
3
76%
14:00
19°
1010.2 hPa 0.6 mm 12.8°
3
70%
20:00
18°
1009.8 hPa 1.6 mm 13.1°
3
67%
 05:31     21:01    Daglengte: 15:30 Zondag 08 Aug
02:00
16°
1009.9 hPa 1.8 mm 12.9°
3
71%
08:00
17°
1009.6 hPa   13.1°
3
79%
14:00
19°
1010.0 hPa 1.6 mm 13.2°
3
75%
20:00
19°
1010.1 hPa 1.3 mm 13.7°
4
55%
 05:33     20:59    Daglengte: 15:26 Maandag 09 Aug
02:00
16°
1010.5 hPa   13.4°
4
59%
08:00
17°
1010.6 hPa 1.5 mm 13.4°
4
61%
  CAPE Lifted Index Hail Supercell Tornado SRH 3km CL BTM PRES CL TOP PRES Swiss DWD icon SMHI TS
 05:05     21:29    Daglengte: 16:24 Vandaag
04:00 0 J/kg 2.2 K 0 % 0 % 0 % 0 m²/s² 0 0 7.51 3
05:00 0 J/kg 2.3 K 0 % 0 % 0 % 0 m²/s² 0 0 7.34 3
06:00 0 J/kg 2.1 K 0 % 0 % 0 % 0 m²/s² 0 0 7.02 3
07:00 0 J/kg 2.0 K 0 % 0 % 0 % 0 m²/s² 0 0 6.77 3
08:00 3 J/kg 2.0 K 0 % 0 % 0 % 0 m²/s² 0 0 6.53 3
09:00 4 J/kg 1.3 K 0 % 0 % 0 % 0 m²/s² 0 0 5.62 3
10:00 0 J/kg 0.5 K 0 % 0 % 0 % 0 m²/s² 0 0 4.31 80
11:00 87 J/kg 0.1 K 0 % 0 % 0 % 0 m²/s² 0 0 3.82 3
12:00 118 J/kg -0.1 K 0 % 0 % 0 % 0 m²/s² 0 0 3.8 3
13:00 121 J/kg -0.3 K 0 % 0 % 0 % 0 m²/s² 0 0 3.21 3
14:00 120 J/kg -0.4 K 0 % 0 % 0 % 0 m²/s² 0 0 2.51 3
15:00 132 J/kg -0.3 K 0 % 0 % 0 % 0 m²/s² 0 0 2.22 80
16:00 121 J/kg -0.5 K 0 % 0 % 0 % 0 m²/s² 0 0 2.02 3
17:00 70 J/kg -0.2 K 0 % 0 % 0 % 0 m²/s² 0 0 2.17 80
18:00 36 J/kg 0.0 K 0 % 0 % 0 % 0 m²/s² 0 0 2.25 3
19:00 18 J/kg 0.1 K 0 % 0 % 0 % 0 m²/s² 0 0 2.08 3
20:00 10 J/kg 0.5 K 0 % 0 % 0 % 0 m²/s² 0 0 2.6 3
21:00 0 J/kg 0.4 K 0 % 0 % 0 % 0 m²/s² 0 0 2.71 3
22:00 0 J/kg 0.4 K 0 % 0 % 0 % 0 m²/s² 0 0 2.05 3
23:00 0 J/kg -0.3 K 0 % 0 % 0 % 0 m²/s² 0 0 1.2 3
 05:07     21:27    Daglengte: 16:20 Morgen
00:00 0 J/kg -2.0 K 0 % 0 % 0 % 0 m²/s² 0 0 -0.98 3
01:00 0 J/kg -0.9 K 0 % 0 % 0 % 0 m²/s² 0 0 0.06 3
02:00 0 J/kg -0.8 K 0 % 0 % 0 % 0 m²/s² 0 0 -0.68 3
03:00 60 J/kg -0.7 K 0 % 0 % 0 % 0 m²/s² 0 0 -0.52 3
04:00 0 J/kg -0.9 K 0 % 0 % 0 % 0 m²/s² 0 0 -0.69 3
05:00 0 J/kg -1.2 K 0 % 0 % 0 % 0 m²/s² 0 0 -1.17 3
06:00 13 J/kg -2.1 K 0 % 0 % 0 % 0 m²/s² 0 0 -1.74 3
07:00 190 J/kg -2.2 K 0 % 0 % 0 % 0 m²/s² 0 0 -1.72 3
08:00 331 J/kg -1.9 K 0 % 0 % 0 % 0 m²/s² 0 0 -1.06 61
09:00 104 J/kg -1.5 K 0 % 0 % 0 % 0 m²/s² 0 0 -0.24 80
10:00 18 J/kg -1.2 K 0 % 0 % 0 % 0 m²/s² 0 0 0.39 80
11:00 257 J/kg -1.4 K 0 % 0 % 0 % 0 m²/s² 0 0 0.4 61
12:00 328 J/kg -1.6 K 0 % 0 % 0 % 0 m²/s² 0 0 0.26 61
13:00 345 J/kg -1.7 K 0 % 0 % 0 % 0 m²/s² 0 0 -0.2 61
14:00 300 J/kg -1.7 K 0 % 0 % 0 % 0 m²/s² 0 0 -0.08 61
15:00 358 J/kg -2.0 K 0 % 0 % 0 % 0 m²/s² 0 0 -0.44 61
16:00 426 J/kg -2.2 K 0 % 0 % 0 % 0 m²/s² 0 0 -0.07 61
17:00 580 J/kg -2.9 K 0 % 0 % 0 % 0 m²/s² 0 0 -0.11 61
18:00 673 J/kg -2.8 K 0 % 0 % 0 % 0 m²/s² 0 0 0.05 61
19:00 742 J/kg -3.3 K 0 % 0 % 0 % 0 m²/s² 0 0 -0.27 61
20:00 879 J/kg -4.2 K 0 % 0 % 0 % 0 m²/s² 0 0 -1.59 61
21:00 638 J/kg -3.0 K 0 % 0 % 0 % 0 m²/s² 0 0 -0.69 61
22:00 546 J/kg -2.2 K 0 % 0 % 0 % 0 m²/s² 0 0 -0.88 61
23:00 537 J/kg -2.5 K 0 % 0 % 0 % 0 m²/s² 0 0 -0.79 3
 05:09     21:26    Daglengte: 16:17 Dinsdag 27 Jul
00:00 545 J/kg -2.4 K 0 % 0 % 0 % 0 m²/s² 0 0 0.06 80
01:00 234 J/kg -2.0 K 0 % 0 % 0 % 0 m²/s² 0 0 1 80
02:00 110 J/kg -2.9 K 0 % 0 % 0 % 0 m²/s² 0 0 -1.64 80
03:00 524 J/kg -3.6 K 0 % 0 % 0 % 0 m²/s² 0 0 -1.44 3
04:00 519 J/kg -3.8 K 0 % 0 % 0 % 0 m²/s² 0 0 -1.19 3
05:00 550 J/kg -3.1 K 0 % 0 % 0 % 0 m²/s² 0 0 -0.67 2
06:00 553 J/kg -2.8 K 0 % 0 % 0 % 0 m²/s² 0 0 -0.91 3
07:00 477 J/kg -2.6 K 0 % 0 % 0 % 0 m²/s² 0 0 -1.25 3
08:00 440 J/kg -2.1 K 0 % 0 % 0 % 0 m²/s² 0 0 -0.51 2
09:00 293 J/kg -1.4 K 0 % 0 % 0 % 0 m²/s² 0 0 1.33 2
10:00 246 J/kg -1.2 K 0 % 0 % 0 % 0 m²/s² 0 0 1.53 2
11:00 47 J/kg -0.3 K 0 % 0 % 0 % 0 m²/s² 0 0 4.59 3
12:00 57 J/kg -0.2 K 0 % 0 % 0 % 0 m²/s² 0 0 4.93 2
13:00 83 J/kg -0.1 K 0 % 0 % 0 % 0 m²/s² 0 0 4.79 3
14:00 213 J/kg -0.4 K 0 % 0 % 0 % 0 m²/s² 0 0 2.42 2
15:00 288 J/kg -0.5 K 0 % 0 % 0 % 0 m²/s² 0 0 0.76 2
16:00 390 J/kg -1.0 K 0 % 0 % 0 % 0 m²/s² 0 0 -0.01 2
17:00 453 J/kg -1.4 K 0 % 0 % 0 % 0 m²/s² 0 0 -0.26 2
18:00 470 J/kg -2.0 K 0 % 0 % 0 % 0 m²/s² 0 0 -0.05 2
19:00 199 J/kg -0.8 K 0 % 0 % 0 % 0 m²/s² 0 0 2.44 2
20:00 265 J/kg -1.2 K 0 % 0 % 0 % 0 m²/s² 0 0 2.19 1
21:00 561 J/kg -2.2 K 0 % 0 % 0 % 0 m²/s² 0 0 1.58 1
22:00 508 J/kg -2.3 K 0 % 0 % 0 % 0 m²/s² 0 0 2.08 1
23:00 441 J/kg -2.1 K 0 % 0 % 0 % 0 m²/s² 0 0 1.38 3
 05:10     21:24    Daglengte: 16:14 Woensdag 28 Jul
00:00 468 J/kg -2.1 K 0 % 0 % 0 % 0 m²/s² 0 0 0.69 3
01:00 305 J/kg -1.2 K 0 % 0 % 0 % 0 m²/s² 0 0 2.19 2
02:00 475 J/kg -2.1 K 0 % 0 % 0 % 0 m²/s² 0 0 1.5 3
Temp Baro Wind Neerslag
  EWN Forecast EWN WRFDA DWD ICON FMI HIRLAM MET Norway GFS
 05:05     21:29    Daglengte: 16:24 Vandaag
05:00 18.5° 1013.4 hPa 6.5 m/s 0.0 mm 17.1° 1012.5 hPa 6.9 m/s 0.0 mm 17.9° 1013.9 hPa 3.9 m/s -2.0 mm 18.7° 1013.5 hPa 6.9 m/s 0.0 mm 17.8° 1013.3 hPa 6.5 m/s
08:00 19.7° 1013.1 hPa 7.5 m/s 0.0 mm 19.7° 1012.2 hPa 7.8 m/s 0.0 mm 19.1° 1013.2 hPa 4.5 m/s 0.0 mm 20.4° 1013.1 hPa 8.1 m/s 0.0 mm 19.8° 1013.2 hPa 7.0 m/s
11:00 22.6° 1013.3 hPa 7.7 m/s 0.0 mm 23.4° 1012.5 hPa 8.4 m/s 0.0 mm 21.6° 1013.4 hPa 5.8 m/s 0.0 mm 23.1° 1013.2 hPa 8.5 m/s 0.0 mm 23.7° 1013.2 hPa 7.6 m/s
14:00 24.3° 1013.1 hPa 7.2 m/s 0.0 mm 25.4° 1012.0 hPa 7.9 m/s 0.0 mm 23.5° 1012.9 hPa 5.8 m/s 0.1 mm 25.5° 1013.4 hPa 7.3 m/s 0.0 mm 25.7° 1013.0 hPa 6.9 m/s
17:00 24.7° 1012.6 hPa 6.3 m/s 0.0 mm 25.3° 1011.7 hPa 7.8 m/s 0.0 mm 23.6° 1012.7 hPa 4.2 m/s 0.9 mm 25.5° 1012.9 hPa 6.3 m/s 0.0 mm 24.9° 1012.7 hPa 6.8 m/s
20:00 23.3° 1012.5 hPa 6.0 m/s 0.0 mm 23.1° 1011.3 hPa 6.6 m/s 0.0 mm 22.4° 1012.6 hPa 4.7 m/s 0.0 mm 23.5° 1012.8 hPa 6.1 m/s 0.0 mm 22.4° 1012.3 hPa 6.2 m/s
23:00 21.1° 1012.8 hPa 5.7 m/s 0.0 mm 20.4° 1011.8 hPa 7.1 m/s 0.0 mm 20.3° 1013.1 hPa 3.8 m/s 0.0 mm 21.3° 1012.9 hPa 5.8 m/s 0.0 mm 19.9° 1012.9 hPa 5.6 m/s
 05:07     21:27    Daglengte: 16:20 Morgen
02:00 20.2° 1012.2 hPa 5.5 m/s 0.0 mm 19.3° 1011.2 hPa 6.4 m/s 0.1 mm 19.7° 1012.3 hPa 3.5 m/s 0.0 mm 20.4° 1011.9 hPa 6.2 m/s 0.0 mm 19.1° 1012.2 hPa 5.3 m/s
05:00 19.8° 1011.7 hPa 5.3 m/s 0.0 mm 18.5° 1010.4 hPa 4.4 m/s 7.2 mm 19.3° 1011.9 hPa 3.4 m/s 0.0 mm 20.0° 1011.2 hPa 6.0 m/s 0.0 mm 18.7° 1011.4 hPa 3.9 m/s
08:00 21.0° 1011.5 hPa 4.7 m/s 0.0 mm 19.9° 1010.1 hPa 4.3 m/s 8.0 mm 19.6° 1012.2 hPa 2.5 m/s 1.0 mm 21.9° 1010.6 hPa 6.1 m/s 0.0 mm 20.6° 1012.0 hPa 5.9 m/s
11:00 24.3° 1011.8 hPa 4.7 m/s 0.0 mm 23.7° 1009.7 hPa 3.1 m/s 8.0 mm 20.4° 1012.2 hPa 2.2 m/s 2.3 mm 26.6° 1010.6 hPa 6.4 m/s 0.0 mm 24.3° 1012.5 hPa 6.2 m/s
14:00 25.9° 1010.8 hPa 5.0 m/s 0.7 mm 24.0° 1008.7 hPa 4.5 m/s 8.0 mm 22.0° 1011.4 hPa 2.2 m/s 0.5 mm 28.9° 1009.2 hPa 8.0 m/s 0.0 mm 25.4° 1012.1 hPa 6.0 m/s
17:00 26.3° 1009.9 hPa 4.3 m/s 0.0 mm 24.9° 1007.5 hPa 2.9 m/s 8.0 mm 20.8° 1010.7 hPa 1.1 m/s 1.1 mm 28.2° 1008.1 hPa 7.9 m/s 0.0 mm 25.0° 1011.7 hPa 5.7 m/s
20:00 24.1° 1009.6 hPa 1.7 m/s 0.0 mm 24.5° 1007.5 hPa 2.9 m/s 8.0 mm 20.6° 1010.3 hPa 0.9 m/s 0.6 mm 24.7° 1007.8 hPa 5.4 m/s 0.0 mm 23.3° 1011.5 hPa 4.7 m/s
23:00 21.2° 1010.0 hPa 2.4 m/s 1.0 mm 21.7° 1007.5 hPa 2.4 m/s 8.0 mm 19.8° 1010.3 hPa 1.1 m/s 0.2 mm 21.1° 1011.2 hPa 3.4 m/s
 05:09     21:26    Daglengte: 16:17 Dinsdag 27 Jul
02:00 19.6° 1009.3 hPa 2.6 m/s 3.0 mm 19.1° 1006.9 hPa 2.8 m/s 8.0 mm 19.4° 1009.5 hPa 1.1 m/s 1.3 mm 19.9° 1011.0 hPa 2.0 m/s
05:00 19.0° 1008.7 hPa 2.2 m/s 4.8 mm 17.1° 1007.1 hPa 2.1 m/s 8.0 mm 19.0° 1008.8 hPa 1.3 m/s 0.1 mm 19.7° 1009.6 hPa 1.3 m/s
08:00 20.1° 1008.3 hPa 2.6 m/s 2.4 mm 19.9° 1007.3 hPa 4.4 m/s 8.0 mm 19.9° 1008.3 hPa 2.6 m/s 0.0 mm 20.6° 1009.9 hPa 2.2 m/s
11:00 21.5° 1008.5 hPa 3.7 m/s 2.2 mm 22.5° 1008.2 hPa 5.7 m/s 8.0 mm 21.2° 1008.6 hPa 3.3 m/s 0.6 mm 24.3° 1009.9 hPa 2.7 m/s
14:00 22.9° 1008.7 hPa 4.5 m/s 1.0 mm 25.0° 1008.5 hPa 5.4 m/s 8.0 mm 22.4° 1008.7 hPa 4.2 m/s 0.2 mm 25.5° 1009.6 hPa 3.4 m/s
17:00 22.5° 1009.0 hPa 4.2 m/s 0.0 mm 25.1° 1008.6 hPa 4.5 m/s 8.1 mm 21.8° 1009.1 hPa 4.2 m/s 0.1 mm 24.3° 1009.9 hPa 4.0 m/s
20:00 21.8° 1009.1 hPa 3.1 m/s 0.0 mm 24.5° 1007.6 hPa 3.5 m/s 9.3 mm 21.1° 1009.4 hPa 3.0 m/s 0.0 mm 22.3° 1009.8 hPa 3.6 m/s
23:00 18.4° 1010.5 hPa 2.0 m/s 0.0 mm 19.1° 1008.5 hPa 2.1 m/s 9.5 mm 18.2° 1011.1 hPa 2.0 m/s 0.0 mm 18.5° 1010.7 hPa 2.7 m/s
 05:10     21:24    Daglengte: 16:14 Woensdag 28 Jul
02:00 18.0° 1010.0 hPa 1.9 m/s 0.0 mm 18.0° 1006.9 hPa 2.5 m/s 9.5 mm 18.0° 1010.7 hPa 1.7 m/s 0.0 mm 17.3° 1010.0 hPa 1.8 m/s
05:00 17.4° 1009.0 hPa 1.9 m/s 8.1 mm 17.4° 1009.0 hPa 1.9 m/s 8.1 mm
08:00 19.0° 1008.3 hPa 2.3 m/s 8.5 mm 19.0° 1008.3 hPa 2.3 m/s 8.5 mm
11:00 19.1° 1007.7 hPa 2.9 m/s 10.2 mm 19.1° 1007.7 hPa 2.9 m/s 10.2 mm
14:00 24.0° 1007.4 hPa 6.7 m/s 11.3 mm 24.0° 1007.4 hPa 6.7 m/s 11.3 mm
17:00 22.7° 1007.9 hPa 6.0 m/s 11.5 mm 22.7° 1007.9 hPa 6.0 m/s 11.5 mm
20:00 19.6° 1008.2 hPa 6.1 m/s 12.0 mm 19.6° 1008.2 hPa 6.1 m/s 12.0 mm
23:00 16.9° 1009.2 hPa 5.2 m/s 12.1 mm 16.9° 1009.2 hPa 5.2 m/s 12.1 mm
 05:12     21:22    Daglengte: 16:10 Donderdag 29 Jul
02:00 15.8° 1009.5 hPa 4.9 m/s 12.1 mm 15.8° 1009.5 hPa 4.9 m/s 12.1 mm
05:00 16.3° 1009.6 hPa 5.0 m/s 12.2 mm 16.3° 1009.6 hPa 5.0 m/s 12.2 mm
08:00 17.0° 1009.8 hPa 5.2 m/s 12.2 mm 17.0° 1009.8 hPa 5.2 m/s 12.2 mm
11:00 21.2° 1009.1 hPa 5.3 m/s 12.2 mm 21.2° 1009.1 hPa 5.3 m/s 12.2 mm
14:00 23.2° 1008.0 hPa 6.5 m/s 12.2 mm 23.2° 1008.0 hPa 6.5 m/s 12.2 mm
17:00 23.2° 1007.3 hPa 6.3 m/s 12.2 mm 23.2° 1007.3 hPa 6.3 m/s 12.2 mm
20:00 21.0° 1006.5 hPa 4.6 m/s 12.3 mm 21.0° 1006.5 hPa 4.6 m/s 12.3 mm
23:00 18.5° 1005.2 hPa 5.0 m/s 12.3 mm 18.5° 1005.2 hPa 5.0 m/s 12.3 mm
 05:14     21:20    Daglengte: 16:06 Vrijdag 30 Jul
02:00 17.8° 1003.9 hPa 6.2 m/s 12.5 mm 17.8° 1003.9 hPa 6.2 m/s 12.5 mm
05:00 15.5° 1004.0 hPa 7.0 m/s 13.2 mm 15.5° 1004.0 hPa 7.0 m/s 13.2 mm
08:00 16.7° 1004.3 hPa 6.8 m/s 13.2 mm 16.7° 1004.3 hPa 6.8 m/s 13.2 mm
11:00 19.9° 1004.5 hPa 9.0 m/s 13.2 mm 19.9° 1004.5 hPa 9.0 m/s 13.2 mm
14:00 21.8° 1004.3 hPa 8.2 m/s 13.2 mm 21.8° 1004.3 hPa 8.2 m/s 13.2 mm
17:00 20.2° 1004.0 hPa 8.4 m/s 13.3 mm 20.2° 1004.0 hPa 8.4 m/s 13.3 mm
20:00 16.6° 1003.7 hPa 8.0 m/s 13.9 mm 16.6° 1003.7 hPa 8.0 m/s 13.9 mm
23:00 15.3° 1003.7 hPa 7.6 m/s 14.2 mm 15.3° 1003.7 hPa 7.6 m/s 14.2 mm
 05:16     21:18    Daglengte: 16:02 Zaterdag 31 Jul
02:00 15.2° 1004.1 hPa 7.2 m/s 14.6 mm 15.2° 1004.1 hPa 7.2 m/s 14.6 mm
05:00 14.5° 1003.8 hPa 6.4 m/s 14.7 mm 14.5° 1003.8 hPa 6.4 m/s 14.7 mm
08:00 17.0° 1003.4 hPa 6.5 m/s 15.0 mm 17.0° 1003.4 hPa 6.5 m/s 15.0 mm
11:00 19.4° 1003.1 hPa 6.4 m/s 15.7 mm 19.4° 1003.1 hPa 6.4 m/s 15.7 mm
14:00 19.6° 1002.4 hPa 6.1 m/s 17.4 mm 19.6° 1002.4 hPa 6.1 m/s 17.4 mm
17:00 17.8° 1002.2 hPa 7.5 m/s 19.1 mm 17.8° 1002.2 hPa 7.5 m/s 19.1 mm
20:00 15.2° 1002.5 hPa 4.9 m/s 20.3 mm 15.2° 1002.5 hPa 4.9 m/s 20.3 mm
23:00 14.5° 1003.0 hPa 5.6 m/s 21.2 mm 14.5° 1003.0 hPa 5.6 m/s 21.2 mm
 05:18     21:16    Daglengte: 15:58 Zondag 01 Aug
02:00 14.2° 1003.5 hPa 4.2 m/s 21.5 mm 14.2° 1003.5 hPa 4.2 m/s 21.5 mm
08:00 15.7° 1005.5 hPa 5.3 m/s 21.9 mm 15.7° 1005.5 hPa 5.3 m/s 21.9 mm
14:00 18.7° 1007.6 hPa 7.2 m/s 22.1 mm 18.7° 1007.6 hPa 7.2 m/s 22.1 mm
20:00 17.3° 1008.6 hPa 5.3 m/s 22.3 mm 17.3° 1008.6 hPa 5.3 m/s 22.3 mm
 05:20     21:14    Daglengte: 15:54 Maandag 02 Aug
02:00 13.5° 1009.2 hPa 3.4 m/s 22.3 mm 13.5° 1009.2 hPa 3.4 m/s 22.3 mm
08:00 14.3° 1009.3 hPa 3.0 m/s 23.9 mm 14.3° 1009.3 hPa 3.0 m/s 23.9 mm
14:00 17.8° 1010.4 hPa 4.4 m/s 27.6 mm 17.8° 1010.4 hPa 4.4 m/s 27.6 mm
20:00 16.4° 1010.7 hPa 4.4 m/s 29.1 mm 16.4° 1010.7 hPa 4.4 m/s 29.1 mm
 05:21     21:12    Daglengte: 15:51 Dinsdag 03 Aug
02:00 13.3° 1011.7 hPa 4.1 m/s 34.2 mm 13.3° 1011.7 hPa 4.1 m/s 34.2 mm
14:00 18.7° 1014.8 hPa 5.2 m/s 36.7 mm 18.7° 1014.8 hPa 5.2 m/s 36.7 mm
20:00 17.2° 1014.6 hPa 4.1 m/s 36.7 mm 17.2° 1014.6 hPa 4.1 m/s 36.7 mm
 05:23     21:10    Daglengte: 15:47 Woensdag 04 Aug
02:00 15.3° 1006.5 hPa 3.0 m/s 0.7 mm
08:00 16.0° 1006.6 hPa 3.1 m/s 0.6 mm
14:00 18.7° 1007.3 hPa 3.7 m/s 1.7 mm
20:00 17.8° 1007.9 hPa 2.7 m/s 1.7 mm
 05:25     21:08    Daglengte: 15:43 Donderdag 05 Aug
02:00 15.5° 1008.7 hPa 2.7 m/s 0.6 mm
08:00 16.2° 1009.1 hPa 2.6 m/s 0.7 mm
14:00 19.2° 1009.7 hPa 3.2 m/s 1.2 mm
20:00 18.2° 1009.9 hPa 2.3 m/s 0.5 mm
 05:27     21:06    Daglengte: 15:39 Vrijdag 06 Aug
02:00 15.7° 1010.6 hPa 2.6 m/s 0.6 mm
08:00 16.5° 1010.7 hPa 2.6 m/s 0.4 mm
14:00 19.5° 1011.0 hPa 3.1 m/s 0.9 mm
20:00 18.5° 1010.7 hPa 2.4 m/s 1.3 mm
 05:29     21:03    Daglengte: 15:34 Zaterdag 07 Aug
02:00 16.1° 1010.8 hPa 2.4 m/s 1.1 mm
08:00 16.5° 1010.3 hPa 2.5 m/s 0.5 mm
14:00 19.5° 1010.2 hPa 3.0 m/s 0.6 mm
20:00 18.2° 1009.8 hPa 2.8 m/s 1.6 mm
 05:31     21:01    Daglengte: 15:30 Zondag 08 Aug
02:00 16.2° 1009.9 hPa 2.6 m/s 1.8 mm
08:00 16.6° 1009.6 hPa 2.5 m/s 0.0 mm
14:00 19.4° 1010.0 hPa 3.5 m/s 1.6 mm
20:00 18.6° 1010.1 hPa 3.6 m/s 1.3 mm
 05:33     20:59    Daglengte: 15:26 Maandag 09 Aug
02:00 16.3° 1010.5 hPa 3.6 m/s 0.0 mm
08:00 16.8° 1010.6 hPa 3.7 m/s 1.5 mm
FMI Hirlam - 7.5 km EWN WRFDA - 12 km DWD ICON - 7 km GFS - 25 km Basiskaart






























































Updatetijd (Europe/Amsterdam) Resolutie Lengte Stap
FMI Hirlam 02:00, 08:00, 14:00, 20:00 7.5 km 49h 1h
EWN WRFDA 22:15, 04:15, 10:15, 16:15 12 km 73h 1h
DWD ICON 23:45, 05:45, 11:45, 17:45 7 km 75h 1h
GFS 02:15, 08:15, 14:15, 20:15 25 km 237h 3h
30+ mm
25-30 mm
20-25 mm
15-20 mm
10-15 mm
6-10 mm
4-6 mm
2-4 mm
1-2 mm
0.5-1 mm
0.2-0.5 mm
0.1-0.2 mm
30+ mm
25-30 mm
20-25 mm
15-20 mm
10-15 mm
6-10 mm
4-6 mm
2-4 mm
1-2 mm
0.5-1 mm
0.2-0.5 mm
0.1-0.2 mm
Sneeuwval
Natte sneeuw
Hagel
Vorst
30+ mm
25-30 mm
20-25 mm
15-20 mm
10-15 mm
6-10 mm
4-6 mm
2-4 mm
1-2 mm
0.5-1 mm
0.2-0.5 mm
0.1-0.2 mm
Sneeuwval
Natte sneeuw
Hagel
Vorst
Onweer
50 mm
40 mm
30 mm
26 mm
22 mm
18 mm
14 mm
10 mm
9 mm
8 mm
7 mm
6 mm
5 mm
4.5 mm
4 mm
3.5 mm
3 mm
2.5 mm
2 mm
1.5 mm
1 mm
0.8 mm
0.6 mm
0.4 mm
0.2 mm
0.05 mm
35°
30°
25°
20°
15°
10°
-5°
-10°
-15°
-20°
-25°
-30°
-35°
33> m/s
29 m/s
25 m/s
21 m/s
17 m/s
14 m/s
11 m/s
8 m/s
5 m/s
3 m/s
0 m/s
2600 J/kg
2400 J/kg
2200 J/kg
2000 J/kg
1800 J/kg
1600 J/kg
1400 J/kg
1200 J/kg
1000 J/kg
800 J/kg
600 J/kg
400 J/kg
200 J/kg
70 dBZ
65 dBZ
60 dBZ
55 dBZ
50 dBZ
45 dBZ
40 dBZ
35 dBZ
30 dBZ
25 dBZ
20 dBZ
15 dBZ
10 dBZ
5 dBZ
-1 K
-2 K
-3 K
-4 K
-5 K
-6 K
-7 K
-8 K
-9 K
950 m²/s²
900 m²/s²
850 m²/s²
800 m²/s²
750 m²/s²
700 m²/s²
650 m²/s²
600 m²/s²
550 m²/s²
500 m²/s²
450 m²/s²
400 m²/s²
350 m²/s²
300 m²/s²
250 m²/s²
200 m²/s²
150 m²/s²
100 m²/s²
46 m/s
44 m/s
42 m/s
40 m/s
38 m/s
36 m/s
34 m/s
32 m/s
30 m/s
28 m/s
26 m/s
24 m/s
22 m/s
20 m/s
16 m/s
12 m/s
8 m/s
4 m/s
30 m/s
28 m/s
26 m/s
24 m/s
22 m/s
20 m/s
18 m/s
16 m/s
14 m/s
12 m/s
10 m/s
8 m/s
6 m/s
4 m/s
2 m/s
3.0
2.8
2.6
2.4
2.2
2.0
1.8
1.6
1.4
1.2
1.0
0.8
0.6
0.4
0.2
15
14
13
12
11
10
9
8
7
6
5
4
3
2
1
90%
80%
70%
60%
50%
40%
30%
20%
10%
42
40
38
36
34
32
30
28
26
24
22
20
18
16
14
12
90+ cm
80-90 cm
70-80 cm
60-70 cm
50-60 cm
40-50 cm
30-40 cm
20-30 cm
10-20 cm
1-10 cm
Sneeuwval
Natte sneeuw
Regen
>120 mm
115 mm
110 mm
105 mm
100 mm
95 mm
90 mm
85 mm
80 mm
75 mm
70 mm
65 mm
60 mm
55 mm
50 mm
45 mm
45 mm
40 mm
35 mm
30 mm
25 mm
20 mm
15 mm
10 mm
5 mm
0.1 mm
960 hPa
880 hPa
800 hPa
720 hPa
640 hPa
560 hPa
584 gpdm
568 gpdm
552 gpdm